Time,TemperatureF,DewpointF,PressureIn,WindDirection,WindDirectionDegrees,WindSpeedMPH,WindSpeedGustMPH,Humidity,HourlyPrecipIn,Conditions,Clouds,dailyrainin,SoftwareType,DateUTC
2013-02-16 00:02:00,35.0,11.0,30.43,NNE,28,7.0,8.0,37,0.00,,,-99.99,,2013-02-16 07:02:00,
2013-02-16 00:11:00,35.0,11.0,30.43,NNE,28,7.0,8.0,37,0.00,,,-99.99,,2013-02-16 07:11:00,
2013-02-16 00:21:00,34.0,11.0,30.43,NNE,30,5.0,6.0,38,0.00,,,-99.99,,2013-02-16 07:21:00,
2013-02-16 00:31:00,34.0,11.0,30.43,North,8,4.0,8.0,38,0.00,,,-99.99,,2013-02-16 07:31:00,
2013-02-16 00:42:00,34.0,11.0,30.43,North,8,4.0,8.0,38,0.00,,,-99.99,,2013-02-16 07:42:00,
2013-02-16 00:53:00,34.0,12.0,30.44,NNE,28,5.0,9.0,39,0.00,,,-99.99,,2013-02-16 07:53:00,
2013-02-16 01:01:00,33.0,11.0,30.45,NNE,30,6.0,8.0,40,0.00,,,-99.99,,2013-02-16 08:01:00,
2013-02-16 01:11:00,33.0,11.0,30.45,NNE,30,6.0,8.0,40,0.00,,,-99.99,,2013-02-16 08:11:00,
2013-02-16 01:21:00,33.0,11.0,30.45,NNE,19,4.0,6.0,40,0.00,,,-99.99,,2013-02-16 08:21:00,
2013-02-16 01:31:00,33.0,12.0,30.45,NNE,33,5.0,8.0,41,0.00,,,-99.99,,2013-02-16 08:31:00,
2013-02-16 01:41:00,33.0,12.0,30.45,NNE,33,5.0,8.0,41,0.00,,,-99.99,,2013-02-16 08:41:00,
2013-02-16 01:52:00,33.0,12.0,30.46,North,8,4.0,6.0,41,0.00,,,-99.99,,2013-02-16 08:52:00,
2013-02-16 02:01:00,33.0,12.0,30.46,NNE,33,4.0,7.0,42,0.00,,,-99.99,,2013-02-16 09:01:00,
2013-02-16 02:11:00,33.0,12.0,30.46,NNE,33,4.0,7.0,42,0.00,,,-99.99,,2013-02-16 09:11:00,
2013-02-16 02:21:00,32.0,12.0,30.47,NNE,22,3.0,7.0,43,0.00,,,-99.99,,2013-02-16 09:21:00,
2013-02-16 02:31:00,31.0,12.0,30.47,ESE,105,5.0,6.0,45,0.00,,,-99.99,,2013-02-16 09:31:00,
2013-02-16 02:42:00,31.0,12.0,30.47,ESE,105,5.0,6.0,45,0.00,,,-99.99,,2013-02-16 09:42:00,
2013-02-16 02:52:00,31.0,13.0,30.48,ENE,74,2.0,6.0,46,0.00,,,-99.99,,2013-02-16 09:52:00,
2013-02-16 03:01:00,31.0,13.0,30.48,ENE,61,4.0,5.0,46,0.00,,,-99.99,,2013-02-16 10:01:00,
2013-02-16 03:11:00,31.0,13.0,30.48,ENE,61,4.0,5.0,46,0.00,,,-99.99,,2013-02-16 10:11:00,
2013-02-16 03:21:00,31.0,12.0,30.48,NE,46,6.0,6.0,45,0.00,,,-99.99,,2013-02-16 10:21:00,
2013-02-16 03:31:00,30.0,12.0,30.48,ENE,66,4.0,6.0,47,0.00,,,-99.99,,2013-02-16 10:31:00,
2013-02-16 03:41:00,30.0,12.0,30.48,ENE,66,4.0,6.0,47,0.00,,,-99.99,,2013-02-16 10:41:00,
2013-02-16 03:52:00,31.0,13.0,30.49,East,87,5.0,5.0,46,0.00,,,-99.99,,2013-02-16 10:52:00,
2013-02-16 04:02:00,30.0,12.0,30.49,East,85,6.0,7.0,47,0.00,,,-99.99,,2013-02-16 11:02:00,
2013-02-16 04:11:00,30.0,12.0,30.49,East,85,6.0,7.0,47,0.00,,,-99.99,,2013-02-16 11:11:00,
2013-02-16 04:22:00,31.0,12.0,30.49,ENE,77,6.0,6.0,45,0.00,,,-99.99,,2013-02-16 11:22:00,
2013-02-16 04:32:00,32.0,13.0,30.49,East,94,6.0,8.0,45,0.00,,,-99.99,,2013-02-16 11:32:00,
2013-02-16 04:42:00,32.0,13.0,30.49,East,94,6.0,8.0,45,0.00,,,-99.99,,2013-02-16 11:42:00,
2013-02-16 04:52:00,31.0,13.0,30.48,East,80,6.0,9.0,46,0.00,,,-99.99,,2013-02-16 11:52:00,
2013-02-16 05:01:00,30.0,12.0,30.48,East,99,8.0,8.0,47,0.00,,,-99.99,,2013-02-16 12:01:00,
2013-02-16 05:12:00,30.0,12.0,30.48,East,99,8.0,8.0,47,0.00,,,-99.99,,2013-02-16 12:12:00,
2013-02-16 05:22:00,28.0,12.0,30.49,East,95,8.0,9.0,50,0.00,,,-99.99,,2013-02-16 12:22:00,
2013-02-16 05:32:00,28.0,12.0,30.49,East,84,7.0,9.0,50,0.00,,,-99.99,,2013-02-16 12:32:00,
2013-02-16 05:42:00,28.0,12.0,30.49,East,84,7.0,9.0,50,0.00,,,-99.99,,2013-02-16 12:42:00,
2013-02-16 05:52:00,29.0,12.0,30.49,East,91,8.0,9.0,49,0.00,,,-99.99,,2013-02-16 12:52:00,
2013-02-16 06:02:00,29.0,12.0,30.49,East,101,7.0,9.0,48,0.00,,,-99.99,,2013-02-16 13:02:00,
2013-02-16 06:11:00,29.0,12.0,30.50,East,98,7.0,9.0,49,0.00,,,-99.99,,2013-02-16 13:11:00,
2013-02-16 06:21:00,29.0,12.0,30.50,East,98,7.0,9.0,49,0.00,,,-99.99,,2013-02-16 13:21:00,
2013-02-16 06:31:00,28.0,12.0,30.50,East,88,7.0,9.0,50,0.00,,,-99.99,,2013-02-16 13:31:00,
2013-02-16 06:41:00,28.0,12.0,30.50,East,88,7.0,9.0,50,0.00,,,-99.99,,2013-02-16 13:41:00,
2013-02-16 06:51:00,28.0,12.0,30.50,East,99,8.0,9.0,51,0.00,,,-99.99,,2013-02-16 13:51:00,
2013-02-16 07:01:00,30.0,13.0,30.50,NE,40,7.0,7.0,48,0.00,,,-99.99,,2013-02-16 14:01:00,
2013-02-16 07:11:00,30.0,13.0,30.50,NE,40,7.0,7.0,48,0.00,,,-99.99,,2013-02-16 14:11:00,
2013-02-16 07:21:00,30.0,12.0,30.50,ENE,61,6.0,6.0,47,0.00,,,-99.99,,2013-02-16 14:21:00,
2013-02-16 07:32:00,33.0,12.0,30.50,NE,50,7.0,11.0,42,0.00,,,-99.99,,2013-02-16 14:32:00,
2013-02-16 07:41:00,33.0,12.0,30.50,NE,50,7.0,11.0,42,0.00,,,-99.99,,2013-02-16 14:41:00,
2013-02-16 07:52:00,33.0,13.0,30.50,NE,49,6.0,8.0,43,0.00,,,-99.99,,2013-02-16 14:52:00,
2013-02-16 08:01:00,34.0,13.0,30.50,NE,43,3.0,4.0,41,0.00,,,-99.99,,2013-02-16 15:01:00,
2013-02-16 08:11:00,34.0,13.0,30.50,NE,43,3.0,4.0,41,0.00,,,-99.99,,2013-02-16 15:11:00,
2013-02-16 08:21:00,34.0,13.0,30.49,NE,35,3.0,5.0,42,0.00,,,-99.99,,2013-02-16 15:21:00,
2013-02-16 08:31:00,33.0,12.0,30.48,NNW,347,4.0,6.0,42,0.00,,,-99.99,,2013-02-16 15:31:00,
2013-02-16 08:41:00,33.0,12.0,30.48,NNW,347,4.0,6.0,42,0.00,,,-99.99,,2013-02-16 15:41:00,
2013-02-16 08:51:00,35.0,13.0,30.47,North,354,0.0,4.0,40,0.00,,,-99.99,,2013-02-16 15:51:00,
2013-02-16 09:01:00,37.0,14.0,30.45,NNW,327,0.0,0.0,38,0.00,,,-99.99,,2013-02-16 16:01:00,
2013-02-16 09:11:00,37.0,14.0,30.45,NNW,327,0.0,0.0,38,0.00,,,-99.99,,2013-02-16 16:11:00,
2013-02-16 09:21:00,39.0,13.0,30.44,North,9,4.0,7.0,34,0.00,,,-99.99,,2013-02-16 16:21:00,
2013-02-16 09:32:00,39.0,12.0,30.42,NE,52,5.0,9.0,32,0.00,,,-99.99,,2013-02-16 16:32:00,
2013-02-16 09:41:00,39.0,12.0,30.42,NE,52,5.0,9.0,32,0.00,,,-99.99,,2013-02-16 16:41:00,
2013-02-16 09:52:00,41.0,13.0,30.40,NE,36,6.0,10.0,32,0.00,,,-99.99,,2013-02-16 16:52:00,
2013-02-16 10:01:00,41.0,13.0,30.40,North,8,8.0,13.0,31,0.00,,,-99.99,,2013-02-16 17:01:00,
2013-02-16 10:11:00,41.0,13.0,30.40,North,8,8.0,13.0,31,0.00,,,-99.99,,2013-02-16 17:11:00,
2013-02-16 10:21:00,41.0,13.0,30.38,North,352,6.0,11.0,31,0.00,,,-99.99,,2013-02-16 17:21:00,
2013-02-16 10:32:00,41.0,11.0,30.37,NNW,348,7.0,11.0,29,0.00,,,-99.99,,2013-02-16 17:32:00,
2013-02-16 10:41:00,41.0,11.0,30.37,NNW,348,7.0,11.0,29,0.00,,,-99.99,,2013-02-16 17:41:00,
2013-02-16 10:52:00,41.0,11.0,30.36,North,357,7.0,17.0,29,0.00,,,-99.99,,2013-02-16 17:52:00,
2013-02-16 11:02:00,42.0,12.0,30.35,NE,42,6.0,12.0,29,0.00,,,-99.99,,2013-02-16 18:02:00,
2013-02-16 11:11:00,43.0,12.0,30.34,NE,46,6.0,11.0,28,0.00,,,-99.99,,2013-02-16 18:11:00,
2013-02-16 11:21:00,43.0,12.0,30.34,NE,46,6.0,11.0,28,0.00,,,-99.99,,2013-02-16 18:21:00,
2013-02-16 11:33:00,44.0,12.0,30.32,WNW,302,7.0,9.0,27,0.00,,,-99.99,,2013-02-16 18:33:00,
2013-02-16 11:42:00,44.0,12.0,30.32,WNW,302,7.0,9.0,27,0.00,,,-99.99,,2013-02-16 18:42:00,
2013-02-16 11:51:00,44.0,11.0,30.31,WNW,302,5.0,10.0,26,0.00,,,-99.99,,2013-02-16 18:51:00,
2013-02-16 12:02:00,46.0,11.0,30.30,NW,313,6.0,8.0,24,0.00,,,-99.99,,2013-02-16 19:02:00,
2013-02-16 12:11:00,46.0,11.0,30.30,NW,313,6.0,8.0,24,0.00,,,-99.99,,2013-02-16 19:11:00,
2013-02-16 12:21:00,46.0,11.0,30.28,West,281,5.0,5.0,24,0.00,,,-99.99,,2013-02-16 19:21:00,
2013-02-16 12:31:00,46.0,10.0,30.26,NNW,337,7.0,8.0,23,0.00,,,-99.99,,2013-02-16 19:31:00,
2013-02-16 12:42:00,46.0,10.0,30.26,NNW,337,7.0,8.0,23,0.00,,,-99.99,,2013-02-16 19:42:00,
2013-02-16 12:52:00,47.0,11.0,30.25,WNW,298,7.0,11.0,23,0.00,,,-99.99,,2013-02-16 19:52:00,
2013-02-16 13:01:00,47.0,10.0,30.24,NW,315,5.0,8.0,22,0.00,,,-99.99,,2013-02-16 20:01:00,
2013-02-16 13:11:00,48.0,11.0,30.23,WNW,289,0.0,8.0,22,0.00,,,-99.99,,2013-02-16 20:11:00,
2013-02-16 13:21:00,48.0,11.0,30.23,WNW,289,0.0,8.0,22,0.00,,,-99.99,,2013-02-16 20:21:00,
2013-02-16 13:32:00,49.0,11.0,30.22,SW,229,8.0,9.0,21,0.00,,,-99.99,,2013-02-16 20:32:00,
2013-02-16 13:42:00,49.0,11.0,30.22,SW,229,8.0,9.0,21,0.00,,,-99.99,,2013-02-16 20:42:00,
2013-02-16 13:52:00,49.0,11.0,30.20,SSE,157,3.0,8.0,21,0.00,,,-99.99,,2013-02-16 20:52:00,
2013-02-16 14:02:00,50.0,8.0,30.19,South,175,3.0,6.0,18,0.00,,,-99.99,,2013-02-16 21:02:00,
2013-02-16 14:11:00,50.0,8.0,30.19,South,175,3.0,6.0,18,0.00,,,-99.99,,2013-02-16 21:11:00,
2013-02-16 14:21:00,50.0,8.0,30.19,WSW,244,6.0,9.0,18,0.00,,,-99.99,,2013-02-16 21:21:00,
2013-02-16 14:31:00,52.0,7.0,30.18,SW,227,5.0,7.0,16,0.00,,,-99.99,,2013-02-16 21:31:00,
2013-02-16 14:41:00,52.0,7.0,30.18,SW,227,5.0,7.0,16,0.00,,,-99.99,,2013-02-16 21:41:00,
2013-02-16 14:52:00,52.0,6.0,30.16,SW,223,7.0,8.0,15,0.00,,,-99.99,,2013-02-16 21:52:00,
2013-02-16 15:01:00,52.0,6.0,30.15,West,261,7.0,10.0,15,0.00,,,-99.99,,2013-02-16 22:01:00,
2013-02-16 15:11:00,52.0,6.0,30.15,West,261,7.0,10.0,15,0.00,,,-99.99,,2013-02-16 22:11:00,
2013-02-16 15:21:00,53.0,7.0,30.15,SW,236,2.0,7.0,15,0.00,,,-99.99,,2013-02-16 22:21:00,
2013-02-16 15:32:00,54.0,4.0,30.13,WSW,243,9.0,10.0,13,0.00,,,-99.99,,2013-02-16 22:32:00,
2013-02-16 15:42:00,54.0,4.0,30.13,WSW,243,9.0,10.0,13,0.00,,,-99.99,,2013-02-16 22:42:00,
2013-02-16 15:52:00,54.0,4.0,30.13,WSW,241,6.0,10.0,13,0.00,,,-99.99,,2013-02-16 22:52:00,
2013-02-16 16:02:00,55.0,5.0,30.11,West,262,4.0,4.0,13,0.00,,,-99.99,,2013-02-16 23:02:00,
2013-02-16 16:11:00,55.0,3.0,30.11,NW,326,7.0,7.0,12,0.00,,,-99.99,,2013-02-16 23:11:00,
2013-02-16 16:21:00,55.0,3.0,30.11,NW,326,7.0,7.0,12,0.00,,,-99.99,,2013-02-16 23:21:00,
2013-02-16 16:31:00,55.0,3.0,30.10,NW,324,6.0,7.0,12,0.00,,,-99.99,,2013-02-16 23:31:00,
2013-02-16 16:42:00,55.0,3.0,30.10,NW,324,6.0,7.0,12,0.00,,,-99.99,,2013-02-16 23:42:00,
2013-02-16 16:52:00,55.0,3.0,30.10,NNE,12,1.0,7.0,12,0.00,,,-99.99,,2013-02-16 23:52:00,
2013-02-16 17:02:00,55.0,3.0,30.10,NW,320,2.0,6.0,12,0.00,,,-99.99,,2013-02-17 00:02:00,
2013-02-16 17:12:00,55.0,3.0,30.10,NW,320,2.0,6.0,12,0.00,,,-99.99,,2013-02-17 00:12:00,
2013-02-16 17:21:00,55.0,1.0,30.10,North,2,0.0,4.0,11,0.00,,,-99.99,,2013-02-17 00:21:00,
2013-02-16 17:31:00,55.0,-8.0,30.10,North,1,9.0,16.0,7,0.00,,,-99.99,,2013-02-17 00:31:00,
2013-02-16 17:52:00,54.0,-6.0,30.10,NNW,344,7.0,15.0,8,0.00,,,-99.99,,2013-02-17 00:52:00,
2013-02-16 18:01:00,53.0,-7.0,30.11,North,354,7.0,14.0,8,0.00,,,-99.99,,2013-02-17 01:01:00,
2013-02-16 18:21:00,53.0,-4.0,30.12,NNE,16,5.0,11.0,9,0.00,,,-99.99,,2013-02-17 01:21:00,
2013-02-16 18:31:00,52.0,-3.0,30.13,North,8,2.0,9.0,10,0.00,,,-99.99,,2013-02-17 01:31:00,
2013-02-16 18:41:00,52.0,-3.0,30.13,North,8,2.0,9.0,10,0.00,,,-99.99,,2013-02-17 01:41:00,
2013-02-16 18:52:00,51.0,0.0,30.14,North,1,5.0,7.0,12,0.00,,,-99.99,,2013-02-17 01:52:00,
2013-02-16 19:01:00,50.0,-1.0,30.16,North,8,7.0,8.0,12,0.00,,,-99.99,,2013-02-17 02:01:00,
2013-02-16 19:11:00,50.0,-1.0,30.16,North,8,7.0,8.0,12,0.00,,,-99.99,,2013-02-17 02:11:00,
2013-02-16 19:21:00,49.0,0.0,30.16,NNE,12,6.0,7.0,13,0.00,,,-99.99,,2013-02-17 02:21:00,
2013-02-16 19:31:00,49.0,2.0,30.16,North,4,5.0,8.0,14,0.00,,,-99.99,,2013-02-17 02:31:00,
2013-02-16 19:41:00,49.0,2.0,30.16,North,4,5.0,8.0,14,0.00,,,-99.99,,2013-02-17 02:41:00,
2013-02-16 19:52:00,48.0,1.0,30.17,NNE,26,6.0,7.0,14,0.00,,,-99.99,,2013-02-17 02:52:00,
2013-02-16 20:01:00,47.0,2.0,30.17,NE,37,6.0,7.0,15,0.00,,,-99.99,,2013-02-17 03:01:00,
2013-02-16 20:11:00,47.0,2.0,30.17,NE,37,6.0,7.0,15,0.00,,,-99.99,,2013-02-17 03:11:00,
2013-02-16 20:21:00,47.0,2.0,30.17,NE,52,7.0,9.0,15,0.00,,,-99.99,,2013-02-17 03:21:00,
2013-02-16 20:31:00,47.0,2.0,30.17,NE,56,6.0,9.0,15,0.00,,,-99.99,,2013-02-17 03:31:00,
2013-02-16 20:42:00,47.0,2.0,30.17,NE,56,6.0,9.0,15,0.00,,,-99.99,,2013-02-17 03:42:00,
2013-02-16 20:52:00,47.0,2.0,30.17,NE,35,8.0,11.0,15,0.00,,,-99.99,,2013-02-17 03:52:00,
2013-02-16 21:01:00,47.0,2.0,30.16,NE,53,8.0,9.0,15,0.00,,,-99.99,,2013-02-17 04:01:00,
2013-02-16 21:11:00,47.0,2.0,30.17,NE,36,7.0,10.0,15,0.00,,,-99.99,,2013-02-17 04:11:00,
2013-02-16 21:21:00,47.0,2.0,30.17,NE,36,7.0,10.0,15,0.00,,,-99.99,,2013-02-17 04:21:00,
2013-02-16 21:31:00,46.0,2.0,30.18,NE,54,4.0,7.0,16,0.00,,,-99.99,,2013-02-17 04:31:00,
2013-02-16 21:41:00,46.0,2.0,30.18,NE,54,4.0,7.0,16,0.00,,,-99.99,,2013-02-17 04:41:00,
2013-02-16 21:51:00,45.0,3.0,30.18,ENE,64,7.0,8.0,17,0.00,,,-99.99,,2013-02-17 04:51:00,
2013-02-16 22:01:00,45.0,4.0,30.18,NE,52,7.0,9.0,18,0.00,,,-99.99,,2013-02-17 05:01:00,
2013-02-16 22:12:00,45.0,4.0,30.18,NE,47,8.0,9.0,18,0.00,,,-99.99,,2013-02-17 05:12:00,
2013-02-16 22:22:00,45.0,4.0,30.18,NE,47,8.0,9.0,18,0.00,,,-99.99,,2013-02-17 05:22:00,
2013-02-16 22:33:00,45.0,4.0,30.16,NNE,26,6.0,11.0,18,0.00,,,-99.99,,2013-02-17 05:33:00,
2013-02-16 22:42:00,45.0,4.0,30.16,NNE,26,6.0,11.0,18,0.00,,,-99.99,,2013-02-17 05:42:00,
2013-02-16 22:52:00,44.0,4.0,30.16,ENE,60,3.0,7.0,19,0.00,,,-99.99,,2013-02-17 05:52:00,
2013-02-16 23:02:00,43.0,6.0,30.16,NE,40,2.0,4.0,21,0.00,,,-99.99,,2013-02-17 06:02:00,
2013-02-16 23:11:00,43.0,6.0,30.16,NE,40,2.0,4.0,21,0.00,,,-99.99,,2013-02-17 06:11:00,
2013-02-16 23:21:00,43.0,6.0,30.16,NNE,12,0.0,2.0,21,0.00,,,-99.99,,2013-02-17 06:21:00,
2013-02-16 23:31:00,41.0,6.0,30.16,NNW,329,0.0,3.0,23,0.00,,,-99.99,,2013-02-17 06:31:00,
2013-02-16 23:41:00,41.0,6.0,30.16,NNW,329,0.0,3.0,23,0.00,,,-99.99,,2013-02-17 06:41:00,
2013-02-16 23:52:00,41.0,6.0,30.16,NNW,329,0.0,0.0,23,0.00,,,-99.99,,2013-02-17 06:52:00,